Weather History for Corvallis, OR

Change the Weather History Date:

Friday, February 15, 2013

  Actual Average Record
Temperature  
Mean Temperature 44 °F -  
Max Temperature 53 °F 50 °F 60 °F (2002)
Min Temperature 35 °F 34 °F 23 °F (2005)
Degree Days  
Heating Degree Days 21    
Moisture  
Dew Point 40 °F    
Average Humidity 88    
Maximum Humidity 100    
Minimum Humidity 67    
Precipitation  
Precipitation 0.00 in - - ()
Sea Level Pressure  
Sea Level Pressure 30.34 in    
Wind  
Wind Speed 5 mph (ENE)    
Max Wind Speed 12 mph    
Max Gust Speed 16 mph    
Visibility 8 miles    
Events      
Averages and records for this station are not official NWS values.
T = Trace of Precipitation, MM = Missing Value Source: NWS Daily Summary

Daily Weather History Graph

Daily Weather History Graph

Search for Another Location

Airport:

Trip Planner

Search our weather history database for the weather conditions in past years. The results will help you decide how hot, cold, wet, or windy it might be!

Date:

Astronomy

Feb. 15, 2013 Rise Set
Actual Time 7:12 AM PST 5:42 PM PST
Civil Twilight 6:42 AM PST 6:12 PM PST
Nautical Twilight 6:08 AM PST 6:46 PM PST
Astronomical Twilight 5:35 AM PST 7:20 PM PST
Moon 9:36 AM PST (2/15) No Moon Set
Length of Visible Light 11h 29m
Length of Day
10h 29m
Waxing Crescent, 31% of the Moon is Illuminated
Feb 15
Waxing Crescent
Feb 17
First Quarter
Feb 25
Full
Mar 4
Last Quarter
Mar 11
New

Hourly Weather History & Observations

Time (PST) Temp. Windchill Dew Point Humidity Pressure Visibility Wind Dir Wind Speed Gust Speed Precip Events Conditions
12:15 AM 39.2 °F 37.0 °F 37.4 °F 93% 30.48 in 10.0 mi NW 3.5 mph - N/A   Clear
12:35 AM 39.2 °F 35.0 °F 37.4 °F 93% 30.47 in 10.0 mi North 5.8 mph - N/A   Clear
12:55 AM 44.6 °F 40.7 °F 41.0 °F 87% 30.47 in 10.0 mi NNE 6.9 mph - N/A   Clear
1:15 AM 42.8 °F 41.1 °F 39.2 °F 87% 30.47 in 10.0 mi North 3.5 mph - N/A   Clear
1:35 AM 39.2 °F 37.0 °F 35.6 °F 87% 30.47 in 10.0 mi North 3.5 mph - N/A   Scattered Clouds
1:55 AM 37.4 °F 33.8 °F 35.6 °F 93% 30.46 in 10.0 mi NNW 4.6 mph - N/A   Partly Cloudy
2:15 AM 41.0 °F - 39.2 °F 93% 30.46 in 10.0 mi Calm Calm - N/A   Clear
2:35 AM 37.4 °F 32.8 °F 35.6 °F 93% 30.45 in 10.0 mi WNW 5.8 mph - N/A   Clear
2:55 AM 37.4 °F 33.8 °F 35.6 °F 93% 30.45 in 10.0 mi West 4.6 mph - N/A   Clear
3:15 AM 35.6 °F 31.7 °F 35.6 °F 100% 30.44 in 10.0 mi WNW 4.6 mph - N/A   Clear
3:35 AM 37.4 °F - 35.6 °F 93% 30.44 in 10.0 mi Calm Calm - N/A   Clear
4:15 AM 37.4 °F - 35.6 °F 93% 30.43 in 10.0 mi Calm Calm - N/A   Mostly Cloudy
4:35 AM 42.8 °F 38.6 °F 42.8 °F 100% 30.42 in 10.0 mi North 6.9 mph - N/A   Overcast
4:55 AM 44.6 °F 39.2 °F 42.8 °F 93% 30.42 in 10.0 mi North 10.4 mph - N/A   Overcast
5:15 AM 44.6 °F 39.2 °F 41.0 °F 87% 30.41 in 10.0 mi North 10.4 mph 16.1 mph N/A   Overcast
5:35 AM 44.6 °F 40.2 °F 42.8 °F 93% 30.41 in 10.0 mi North 8.1 mph - N/A   Overcast
5:55 AM 44.6 °F 40.2 °F 41.0 °F 87% 30.41 in 10.0 mi North 8.1 mph - N/A   Overcast
6:15 AM 44.6 °F 43.1 °F 41.0 °F 87% 30.40 in 10.0 mi WNW 3.5 mph - N/A   Overcast
6:35 AM 41.0 °F - 39.2 °F 93% 30.40 in 10.0 mi Calm Calm - N/A   Overcast
6:55 AM 42.8 °F - 41.0 °F 93% 30.40 in 10.0 mi Calm Calm - N/A   Overcast
7:15 AM 44.6 °F 39.2 °F 42.8 °F 93% 30.40 in 10.0 mi North 10.4 mph - N/A   Overcast
7:35 AM 44.6 °F 39.2 °F 41.0 °F 87% 30.40 in 10.0 mi NNE 10.4 mph - N/A   Overcast
7:55 AM 44.6 °F 40.7 °F 41.0 °F 87% 30.40 in 10.0 mi North 6.9 mph - N/A   Overcast
8:15 AM 44.6 °F 39.7 °F 41.0 °F 87% 30.39 in 10.0 mi North 9.2 mph - N/A   Overcast
8:35 AM 44.6 °F 38.8 °F 41.0 °F 87% 30.39 in 10.0 mi North 11.5 mph - N/A   Overcast
8:55 AM 44.6 °F 39.2 °F 41.0 °F 87% 30.39 in 10.0 mi NNE 10.4 mph - N/A   Overcast
9:15 AM 44.6 °F 38.8 °F 41.0 °F 87% 30.40 in 10.0 mi North 11.5 mph - N/A   Overcast
9:55 AM 44.6 °F 39.7 °F 41.0 °F 87% 30.39 in 10.0 mi North 9.2 mph - N/A   Overcast
10:15 AM 44.6 °F 39.7 °F 41.0 °F 87% 30.38 in 10.0 mi NNE 9.2 mph - N/A   Overcast
10:35 AM 44.6 °F 39.7 °F 41.0 °F 87% 30.37 in 10.0 mi NNE 9.2 mph - N/A   Overcast
10:55 AM 44.6 °F 40.7 °F 41.0 °F 87% 30.37 in 10.0 mi North 6.9 mph - N/A   Overcast
11:15 AM 46.4 °F 42.4 °F 41.0 °F 81% 30.37 in 10.0 mi NNE 8.1 mph - N/A   Overcast
11:35 AM 46.4 °F 42.4 °F 41.0 °F 81% 30.36 in 10.0 mi NNE 8.1 mph - N/A   Overcast
11:55 AM 46.4 °F 44.3 °F 41.0 °F 81% 30.35 in 10.0 mi NNE 4.6 mph - N/A   Overcast
12:15 PM 46.4 °F 44.3 °F 41.0 °F 81% 30.34 in 10.0 mi North 4.6 mph - N/A   Overcast
12:35 PM 46.4 °F - 41.0 °F 81% 30.33 in 10.0 mi Calm Calm - N/A   Overcast
12:55 PM 48.2 °F - 41.0 °F 76% 30.32 in 10.0 mi Calm Calm - N/A   Overcast
1:15 PM 48.2 °F - 42.8 °F 82% 30.31 in 10.0 mi Calm Calm - N/A   Overcast
1:35 PM 50.0 °F - 42.8 °F 76% 30.30 in 10.0 mi Calm Calm - N/A   Overcast
1:55 PM 51.8 °F - 42.8 °F 71% 30.29 in 10.0 mi Calm Calm - N/A   Mostly Cloudy
2:15 PM 51.8 °F - 42.8 °F 71% 30.28 in 10.0 mi South 4.6 mph - N/A   Scattered Clouds
2:35 PM 51.8 °F - 42.8 °F 71% 30.28 in 10.0 mi SE 4.6 mph - N/A   Partly Cloudy
2:55 PM 51.8 °F - 42.8 °F 71% 30.28 in 10.0 mi South 4.6 mph - N/A   Partly Cloudy
3:15 PM 53.6 °F - 44.6 °F 72% 30.27 in 10.0 mi SSE 5.8 mph - N/A   Partly Cloudy
3:35 PM 53.6 °F - 44.6 °F 72% 30.27 in 10.0 mi SE 3.5 mph - N/A   Clear
3:55 PM 53.6 °F - 42.8 °F 67% 30.26 in 10.0 mi SE 3.5 mph - N/A   Clear
4:15 PM 53.6 °F - 44.6 °F 72% 30.25 in 10.0 mi SSE 6.9 mph - N/A   Clear
4:35 PM 51.8 °F - 44.6 °F 76% 30.26 in 10.0 mi SE 9.2 mph - N/A   Clear
4:55 PM 50.0 °F - 44.6 °F 82% 30.25 in 10.0 mi SE 9.2 mph - N/A   Clear
5:15 PM 48.2 °F - 42.8 °F 82% 30.25 in 10.0 mi SE 5.8 mph - N/A   Clear
5:35 PM 46.4 °F 42.9 °F 42.8 °F 87% 30.25 in 10.0 mi SE 6.9 mph - N/A   Clear
5:55 PM 44.6 °F 40.7 °F 42.8 °F 93% 30.25 in 10.0 mi SE 6.9 mph - N/A   Clear
6:15 PM 44.6 °F 41.4 °F 41.0 °F 87% 30.25 in 10.0 mi SE 5.8 mph - N/A   Clear
6:35 PM 42.8 °F 40.1 °F 39.2 °F 87% 30.25 in 10.0 mi SE 4.6 mph - N/A   Clear
6:55 PM 41.0 °F 39.0 °F 39.2 °F 93% 30.26 in 9.0 mi SSE 3.5 mph - N/A   Clear
7:15 PM 41.0 °F - 39.2 °F 93% 30.26 in 8.0 mi Calm Calm - N/A   Clear
7:35 PM 39.2 °F 35.9 °F 37.4 °F 93% 30.26 in 7.0 mi SSE 4.6 mph - N/A   Clear
7:55 PM 39.2 °F 35.0 °F 37.4 °F 93% 30.25 in 6.0 mi SE 5.8 mph - N/A   Clear
8:15 PM 39.2 °F - 37.4 °F 93% 30.25 in 5.0 mi Calm Calm - N/A   Clear
8:35 PM 41.0 °F 36.4 °F 39.2 °F 93% 30.26 in 0.5 mi SSE 6.9 mph - N/A   Overcast
8:55 PM 41.0 °F 38.0 °F 39.2 °F 93% 30.26 in 0.2 mi SSE 4.6 mph - N/A   Overcast
9:15 PM 41.0 °F 37.1 °F 39.2 °F 93% 30.26 in 0.2 mi SSE 5.8 mph - N/A   Overcast
9:35 PM 41.0 °F 38.0 °F 39.2 °F 93% 30.27 in 0.2 mi South 4.6 mph - N/A   Overcast
9:55 PM 41.0 °F 39.0 °F 39.2 °F 93% 30.27 in 0.2 mi South 3.5 mph - N/A   Overcast
10:15 PM 39.2 °F 37.0 °F 39.2 °F 100% 30.27 in 0.2 mi South 3.5 mph - N/A   Overcast
10:35 PM 39.2 °F 37.0 °F 39.2 °F 100% 30.27 in 0.2 mi South 3.5 mph - N/A   Overcast
10:55 PM 39.2 °F - 39.2 °F 100% 30.27 in 0.2 mi Calm Calm - N/A   Overcast
11:15 PM 39.2 °F - 39.2 °F 100% 30.26 in 0.2 mi Calm Calm - N/A   Overcast
11:35 PM 39.2 °F - 39.2 °F 100% 30.27 in 0.2 mi Calm Calm - N/A   Overcast
11:55 PM 39.2 °F - 39.2 °F 100% 30.26 in 0.2 mi Calm Calm - N/A   Overcast